Location: Mentone
(34.5413°N, 85.5351°W)
Time: 05:47:40
(UTC-05:00)

ATLAS 5 CENTAUR R/B - Visible Passes

Search period start: 25 April 2018 00:00
Search period end: 05 May 2018 00:00
Orbit: 600 x 1060 km, 63.4° (Epoch: 22 April)

Date Brightness Start Highest point End Pass type
(mag) Time Alt. Az. Time Alt. Az. Time Alt. Az.
25 Apr 3.9 21:35:01 10° N 21:39:38 22° NE 21:40:27 22° ENE visible
25 Apr 3.8 23:18:37 10° NW 23:22:00 35° NW 23:22:00 35° NW visible
26 Apr 4.0 21:16:05 10° N 21:20:35 21° NE 21:22:08 19° ENE visible
26 Apr 3.4 22:59:36 10° NW 23:03:41 44° NW 23:03:41 44° NW visible
27 Apr 4.0 20:57:10 10° N 21:01:31 20° NE 21:03:51 17° ENE visible
27 Apr 2.9 22:40:34 10° NW 22:45:24 57° NW 22:45:24 57° NW visible
28 Apr 4.1 20:38:16 10° N 20:42:28 19° NE 20:45:37 14° E visible
28 Apr 2.6 22:21:32 10° NNW 22:27:10 74° WNW 22:27:10 74° WNW visible
29 Apr 4.1 20:19:23 10° N 20:23:24 18° NE 20:27:26 11° E visible
29 Apr 2.3 22:02:32 10° NNW 22:08:44 86° WSW 22:09:00 83° S visible
29 Apr 5.0 23:50:17 10° W 23:50:33 11° W 23:50:33 11° W visible
30 Apr 4.2 20:00:30 10° N 20:04:19 17° NE 20:08:22 10° E visible
30 Apr 2.4 21:43:31 10° NNW 21:49:43 89° ENE 21:50:52 64° SSE visible
30 Apr 4.8 23:30:52 10° W 23:32:26 13° W 23:32:26 13° W visible
01 May 2.4 21:24:30 10° NNW 21:30:42 84° ENE 21:32:49 47° SE visible
01 May 4.7 23:11:32 10° WNW 23:14:23 15° WSW 23:14:23 15° WSW visible
02 May 2.4 21:05:30 10° NNW 21:11:41 80° ENE 21:14:48 34° SE visible
02 May 4.5 22:52:14 10° WNW 22:55:56 16° WSW 22:56:23 16° WSW visible
03 May 2.5 20:46:29 10° NNW 20:52:39 75° ENE 20:56:53 24° SE visible
03 May 4.5 22:32:59 10° WNW 22:36:57 17° WSW 22:38:28 16° SW visible
04 May 2.5 20:27:29 10° NNW 20:33:38 71° ENE 20:39:02 17° SE visible
04 May 4.5 22:13:46 10° WNW 22:17:58 18° WSW 22:20:37 15° SW visible
